Regional Weather Roundup
Issued by NWS

Home | Current Version | Previous Version | Graphics & Text | Print | Product List | Glossary On
Versions: 1 2 3 4 5 6 7 8 9 10 11 12 13 14 15 16 17 18 19 20 21 22 23 24 25 26 27 28 29 30 31 32 33 34 35 36 37 38 39 40 41 42 43 44 45 46 47 48 49 50
218
ASUS44 KLIX 231010
RWRLA
LOUISIANA WEATHER ROUNDUP
NATIONAL WEATHER SERVICE NEW ORLEANS LA
500 AM CDT WED JUL 23 2014

NOTE: "FAIR" INDICATES FEW OR NO CLOUDS BELOW 12,000 FEET WITH NO
      SIGNIFICANT WEATHER AND/OR OBSTRUCTIONS TO VISIBILITY.
      SKY/WX - SKY CONDITION AND SIGNIFICANT WEATHER.
      TMP - AIR TEMPERATURE.    DP   - DEWPOINT TEMPERATURE.
      RH  - RELATIVE HUMIDITY.  PRES - PRESSURE.
      HX  - HEAT INDEX.         WCI  - WIND CHILL INDEX.

*  THESE STATIONS ARE NOT NWS OR FAA STATIONS AND ARE NOT UNDER
   NWS QUALITY CONTROL.

LAZ040-048-061>063-065-066-069-231100-
SOUTHEAST LOUISIANA

CITY           SKY/WX    TMP DP  RH WIND       PRES   REMARKS
N.O. AUDUBON     N/A     79  73  81 MISG        N/A
N.O. INTL ARPT MOCLDY    77  73  87 E3        30.02R
N.O. LAKEFRONT PTCLDY    78  74  87 E10       30.02R
N.O. DOWNTOWN* FAIR      79  70  73 E3        30.02R
SLIDELL        PTCLDY    71  68  90 CALM      30.01S
BATON ROUGE    PTCLDY    71  69  93 CALM      30.03R
BOOTHVILLE     MOCLDY    79  77  94 CALM      30.01R
BELLE CHASSE   MOCLDY    75  72  90 N3        30.01R
BOGALUSA*      FOG       69  66  90 N3        30.05R VSB 1
GALLIANO*      NOT AVBL
NEW ROADS*     FAIR      72  70  95 CALM      30.04R
GONZALES*      FAIR      73  73 100 CALM      30.01R
HAMMOND*       CLEAR     70  66  88 N3        30.05R
HOUMA*         MOCLDY    75  68  78 S7        30.01R
PORT FOURCHON* MOSUNNY   81  75  83 VRB6      30.02S

$$

LAZ041-044-053-054-231100-
SOUTHWEST LOUISIANA

CITY           SKY/WX    TMP DP  RH WIND       PRES   REMARKS
LAKE CHARLES   PTCLDY    75  72  90 N3        30.01S
LAFAYETTE      PTCLDY    74  72  93 NE3       30.02R
PATTERSON      CLEAR     73  73 100 NE3       30.04R
SALT POINT       N/A     78  75  90 CALM      29.99R
NEW IBERIA     CLEAR     74  72  93 NE3       30.02R
CHENAULT AIRPK NOT AVBL

$$

LAZ027-028-231100-
CENTRAL LOUISIANA

CITY           SKY/WX    TMP DP  RH WIND       PRES   REMARKS
FORT POLK      PTCLDY    73  71  93 CALM      30.04R
ALEXANDRIA INT CLEAR     73  72  96 CALM      30.02S FOG
ALEXANDRIA     CLEAR     73  70  90 CALM      30.04S

$$

LAZ001-002-231100-
NORTHWEST LOUISIANA

CITY           SKY/WX    TMP DP  RH WIND       PRES   REMARKS
SHREVEPORT     CLEAR     72  70  93 CALM      30.06R
BARKSDALE AFB  CLEAR     71  71 100 CALM      30.06R
DTN SHREVEPORT CLEAR     72  70  93 CALM      30.06R

$$

LAZ014-016-231100-
NORTHEAST LOUISIANA

CITY           SKY/WX    TMP DP  RH WIND       PRES   REMARKS
MONROE         CLEAR     73  71  93 CALM      30.06R FOG
TALLULAH       PTCLDY    71  69  93 CALM      30.05R FOG

$$




USA.gov is the U.S. government's official web portal to all federal, state and local government web resources and services.